Weather in Ivanino

Russia / Kursk Oblast     51°38′50″N   35°35′07″E
temp.,
°C
wind,
m/s
gust,
m/s
humid.,
%
clouds,
%
prec.,
mm/h
press.,
hPa
HPBL,
m
19 september, sun
sun1900:00+9ese91786100 0.8 1012574
03:00+8ese81590100 2.6 1011467
06:00+9ese91790100 0.4 1009469
09:00+9ese81693100 5.1 1008459
12:00+10ese71494100 3.0 1009584
15:00+11ese61294100 4.8 1008531
18:00+11e4998100 0.6 1007334
21:00+12ese3798100 1.9 1007289
20 september, mon
mon2000:00+11e2499100 0.1 1006138
03:00+12ese2298100 0.1 100675
06:00+11se3598100 0.5 1005168
09:00+12ese4897100 2.9 1004303
12:00+11sw578984 1.4 1006531
15:00+9sw4888100 1.4 1007648
18:00+8ssw5890100 0.2 1008598
21:00+8s4892100 0.5 1009543
21 september, tue
tue2100:00+8s51093100 0.8 1009578
03:00+8ssw61097100 2.6 1008575
06:00+8sw6994100 1.0 1009771
09:00+7sw61092100 1.9 1010686
12:00+8sw61088100 0.1 10111019
15:00+8sw5988100 0.3 10121076
18:00+6wsw5890100 0.1 1013966
21:00+5wsw4794100 0.5 1014796
22 september, wed
wed2200:00+4wsw4696100 0.3 1014737
03:00+5sw4595100 0.4 1014796
06:00+5wsw3594100 0.2 1014643
09:00+5wsw3593100 0.4 1015577
12:00+5sw3491100 0.1 1016737
15:00+6sw3491100 0.1 1016732
18:00+6sw2391100 0.1 1016424
21:00+6s1292100 0.1 1017174
23 september, thu
thu2300:00+6se129199 0.0 101688
03:00+6ese2391100 0.0 1016157
06:00+6ese2491100 0.0 1015184
09:00+7se3583100 0.0 1015424
12:00+7sse3581100 0.2 10151089
15:00+10sse2466100 0.4 10131064
18:00+8wsw2281100 0.4 101451
21:00+7wnw228882 0.4 101446